Location: Misciano
(43.5000°N, 11.9500°E)
Time: 16:46:01
(UTC+00:00)

CZ-2C R/B - Pass Details

Date: 13 August 2020
Orbit: 639 x 705 km, 98.4° (Epoch: 25 September)

Event Time Altitude Azimuth Distance (km) Brightness Sun altitude
Rises 19:23:01 0° 15° (NNE) 3,033 7.3 -11.4°
Reaches altitude 10° 19:25:18 10° 17° (NNE) 2,104 6.5 -11.7°
Maximum altitude 19:29:53 75° 103° (ESE) 688 3.6 -12.4°
Drops below altitude 10° 19:34:21 10° 189° (S) 2,050 6.0 -13.1°
Sets 19:36:32 0° 191° (S) 2,948 6.8 -13.4°
